Tracking 24122 objects as of 7-Dec-2021
HD Live streaming from Space Station
objects crossing your sky now

PEGASUS DEB

Track PEGASUS DEB now!
10-day predictions


NORAD ID: 24378
Int'l Code: 1994-029QF
Perigee: 598.8 km
Apogee: 843.4 km
Inclination: 82.0 °
Period: 99.1 minutes
Semi major axis: 7092 km
RCS: 0.0424 m2 (small)
Launch date: May 19, 1994
Source: United States (US)
Launch site: AIR FORCE WESTERN TEST RANGE (AFWTR)

Note: This is SATELLITE DEBRIS
aabbcc
Your satellite tracking list
Your tracking list is empty




NASA's NSSDC Master Catalog

Two Line Element Set (TLE):
1 24378U 94029QF  21340.50428779  .00000253  00000-0  46136-4 0  9994
2 24378  82.0320  30.4663 0172468 320.3508  38.5178 14.53579791458114
Source of the keplerian elements: AFSPC